#timestamp,LO_Frequency,Hit 
1504724415.3,286047006.6,N
1504724435.2,286047007.1,N
1504724455.9,286047008.7,N
1504724475.7,286047005.9,N
1504724495.5,286047005.9,N
1504724515.4,286047005.3,N
1504724535.2,286047008.2,N
1504724555.0,286047012.1,N
1504724555.9,286047012.1,N
1504724575.8,286047014.4,P
1504724595.6,286047007.5,N
1504724615.5,286047005.5,N
1504724635.3,286047003.0,N
1504724655.1,286047002.5,N
1504724675.8,286047001.8,N
1504724695.7,286047003.4,N
1504724715.5,286047002.2,N
1504724735.3,286046998.8,N
1504724755.2,286046997.6,N
1504724775.9,286046995.1,N
1504724795.7,286046993.7,N
1504724815.6,286046994.2,N
1504724835.4,286046992.6,N
1504724855.2,286046994.7,N
1504724875.1,286046990.5,N
1504724876.0,286046990.5,N
1504724895.8,286046990.0,N
1504724915.6,286046985.3,N
1504724935.4,286046988.3,N
1504724955.3,286046985.4,N
1504724975.1,286046986.5,N
1504724995.8,286046986.7,N
1504725015.7,286046985.9,N
1504725035.5,286046986.4,N
1504725055.3,286046985.8,N
1504725075.2,286046987.4,N
1504725095.9,286046988.3,N
1504725115.7,286046986.7,N
1504725135.6,286046988.2,N
1504725155.4,286046989.4,N
1504725175.2,286046986.6,N
1504725195.0,286046988.2,N
1504725196.0,286046988.2,N
1504725215.8,286046986.7,N
1504725235.6,286046986.5,N
1504725255.5,286046982.1,P
1504725275.3,286046991.5,N
1504725295.1,286046986.9,P
1504725315.9,286046985.7,P
1504725335.7,286047000.4,N
1504725355.5,286046998.6,N
1504725375.4,286047001.9,N
1504725395.2,286047005.6,N
1504725415.0,286047002.4,N
1504725415.9,286047002.4,N
1504725435.8,286046998.1,N
1504725455.6,286047000.2,N
1504725475.4,286047001.9,N
1504725495.2,286046999.8,N
1504725515.1,286047000.2,N
1504725516.0,286047000.2,N
1504725535.8,286047001.5,N
1504725555.6,286047002.8,N
1504725575.5,286047004.8,N
1504725595.3,286047013.8,N
1504725615.1,286047016.8,N
1504725635.9,286047016.5,N
1504725655.7,286047022.4,P
1504725675.5,286047020.4,N
1504725695.4,286047023.9,N
1504725715.2,286047024.5,N
1504725735.0,286047027.4,P
1504725736.0,286047027.4,P
1504725755.8,286047010.1,N
1504725775.6,286047008.1,N
1504725795.4,286047007.9,N
1504725815.3,286047006.1,N
1504725835.1,286047005.7,N
1504725855.8,286047007.4,N
1504725875.7,286047008.1,N
1504725895.5,286047009.6,N
1504725915.3,286047011.2,N
1504725935.2,286047011.2,N
1504725955.9,286047013.5,N
1504725975.7,286047014.8,N
1504725995.6,286047015.5,N
1504726015.4,286047013.7,N
1504726035.2,286047012.2,N
1504726055.0,286047015.6,N
1504726056.0,286047015.6,N
1504726075.8,286047011.9,N
1504726095.6,286047015.5,N
1504726115.4,286047014.7,N
1504726135.3,286047014.4,N
1504726155.1,286047018.5,P
1504726175.8,286047004.1,N
1504726195.7,286047005.4,N
1504726215.5,286047005.4,N
1504726235.3,286047003.8,N
1504726255.2,286047000.5,N
1504726275.0,286047002.1,N
1504726275.9,286047002.1,N
1504726295.7,286046999.8,N
1504726315.6,286047002.8,N
1504726335.4,286046998.7,N
1504726355.2,286047001.1,N
1504726375.1,286047001.9,N
1504726376.0,286047001.9,N
1504726395.8,286047004.3,N
1504726415.6,286047001.7,N
1504726435.5,286047002.6,N
1504726455.3,286047002.5,N
1504726475.1,286047002.7,N
1504726495.9,286046999.9,N
1504726515.7,286047000.9,N
1504726535.5,286046998.6,N
1504726555.3,286047001.9,N
1504726575.2,286047001.6,N
1504726595.0,286046999.9,N
1504726595.9,286046999.9,N
1504726615.7,286047002.5,N
1504726635.6,286047002.4,N
1504726655.4,286047001.2,N
1504726675.2,286046995.3,N
1504726695.1,286046995.1,N
1504726696.0,286046995.1,N
1504726715.8,286046998.2,N
1504726735.6,286046996.1,N
1504726755.5,286046990.7,P
1504726775.3,286046985.3,N
1504726795.1,286046990.0,N
1504726815.9,286046985.5,N
1504726835.7,286046984.3,N
1504726855.5,286046986.6,N
1504726875.4,286046987.8,N
1504726895.2,286046988.3,N
1504726915.0,286046984.6,P
1504726915.9,286046984.6,P
1504726935.8,286046994.0,P
1504726955.6,286046992.4,N
1504726975.4,286046994.2,N
1504726995.3,286046990.6,N
1504727015.1,286046991.5,N
1504727035.8,286046988.6,P
1504727055.7,286046999.0,N
1504727075.5,286046993.3,N
1504727095.3,286046991.7,N
1504727115.2,286046992.3,N
1504727135.9,286046993.5,N
1504727155.7,286046996.7,N
1504727175.6,286046993.7,N
1504727195.4,286046993.3,N
1504727215.2,286046993.9,N
1504727235.1,286046996.1,N
1504727236.0,286046996.1,N
1504727255.8,286046999.5,N
1504727275.6,286046995.0,N
1504727295.5,286046997.4,N
1504727315.3,286046994.3,N
1504727335.1,286046990.7,P
1504727355.9,286046996.7,N
1504727375.7,286046997.2,N
1504727395.5,286046996.9,N
1504727415.4,286046999.6,N
1504727435.2,286046999.5,N
1504727455.0,286046999.1,N
1504727455.9,286046999.1,N
1504727475.7,286046999.3,N
1504727495.6,286047001.1,N
1504727515.4,286047003.0,N
1504727535.3,286047010.1,P
1504727555.1,286047018.6,P
1504727556.0,286047018.6,N
1504727575.8,286047021.6,N
1504727595.7,286047024.7,N
1504727615.5,286047024.8,N
1504727635.3,286047026.6,N
1504727655.1,286047021.9,N
1504727675.9,286047021.8,N
1504727695.7,286047021.8,N
1504727715.5,286047019.2,N
1504727735.4,286047020.6,N
1504727755.2,286047022.7,P
1504727775.0,286047001.3,N
1504727775.9,286047001.3,N
1504727795.8,286047004.4,N
1504727815.6,286047004.6,N
1504727835.4,286047004.3,N
1504727855.3,286047004.9,N
1504727875.1,286047002.9,N
1504727876.0,286047002.9,N
1504727895.8,286047005.2,N
1504727915.7,286047006.2,N
1504727935.5,286047005.0,N
1504727955.3,286047007.4,N
1504727975.2,286047006.7,N
1504727995.9,286047004.7,N
